Location: Les Grands Cl�ments
(43.9288°N, 5.4243°E)
Time: 00:05:54
(UTC+00:00)

Daily predictions for brighter satellites

Satellite Brightness Start Highest point End
(mag) Time Altitude Azimuth Time Altitude Azimuth Time Altitude Azimuth
STARLINK-1099 4.5 00:00:37 10° WNW 00:03:25 41° WNW 00:03:25 41° WNW
GEOS 3 Rocket 3.9 00:07:38 32° ESE 00:10:00 64° NE 00:15:14 10° NNW
Cosmos 1726 3.5 00:08:26 10° NNW 00:10:54 32° NW 00:10:54 32° NW
COSMOS 2455 2.8 00:11:40 56° SSE 00:12:43 67° ESE 00:18:42 10° NE
Cosmos 2058 Rocket 3.9 00:08:56 10° N 00:13:09 42° ENE 00:13:46 39° E
Meteor 1-29 4.1 00:11:09 10° NNE 00:13:32 40° NE 00:13:32 40° NE
Cosmos 2228 2.9 00:11:26 10° N 00:15:32 81° NNE 00:15:32 81° NNE
SL-14 R/B 4.3 00:18:39 37° E 00:18:39 37° E 00:21:58 10° NNE
Meteor 2-15 Rocket 4.4 00:13:21 10° NNW 00:19:30 74° W 00:20:55 54° SSW
Cosmos 1953 3.8 00:16:41 10° NNW 00:19:26 27° WNW 00:19:26 27° WNW
Cosmos 1340 Rocket 3.9 00:18:04 10° NNW 00:21:08 36° WNW 00:21:08 36° WNW
Okean 1-7 Rocket 3.9 00:22:03 55° ESE 00:22:15 56° E 00:26:40 10° NNE
Cosmos 921 Rocket 4.2 00:23:35 31° E 00:23:35 31° E 00:27:21 10° NE
Cosmos 1300 3.8 00:21:20 10° N 00:24:53 36° ENE 00:25:04 36° E
COSMOS 2487 3.6 00:24:58 10° NNW 00:27:18 39° NNW 00:27:18 39° NNW
Cosmos 1833 4.4 00:23:54 10° NW 00:29:20 51° WSW 00:29:45 50° SW
Cosmos 1626 2.6 00:34:31 57° ENE 00:34:31 57° ENE 00:37:47 10° NNE
Cosmos 1656 Rocket 4.3 00:33:51 36° WSW 00:35:38 47° WNW 00:41:04 10° NNE
Cosmos 1606 Rocket 3.9 00:34:52 10° NNW 00:38:48 49° W 00:38:48 49° W
FALCON 9 R/B 3.3 00:38:25 41° SSW 00:39:53 46° SSE 00:56:51 10° E
MOZ.5/SAFIR/RUBIN 5/SL-8 4.4 00:44:15 35° SE 00:45:52 51° ENE 00:50:22 10° N
Meteor 2-21 4.4 00:45:34 48° SSW 00:47:23 75° W 00:53:35 10° N
Cosmos 2297 Rocket 3.9 00:43:54 10° N 00:48:51 30° NE 00:53:47 10° ESE
SL-4 R/B 2.3 00:49:12 60° WSW 00:50:05 85° NNW 00:54:53 10° ENE
Cosmos 1437 3.9 00:52:48 38° NE 00:52:48 38° NE 00:54:55 10° NNE
NOSS 3-2 (C) 4.5 00:44:56 10° NW 00:52:12 44° WSW 00:54:29 37° SSW
Cosmos 1674 4.2 00:53:21 25° WNW 00:53:21 25° WNW 00:56:15 10° NNW
ATLAS CENTAUR R/B 1.7 00:56:56 54° W 00:57:32 61° NW 01:01:41 10° NNE
SL-19 R/B 4.2 00:52:59 10° NNE 00:58:23 75° WNW 01:00:03 46° SW
SL-16 R/B 2.8 00:56:01 23° SE 00:59:54 65° ENE 01:06:01 10° N
NOSS 3-4 (A) 4.1 00:57:31 27° WSW 01:00:33 49° NW 01:06:43 10° NNE
NOSS 3-4 (C) 4.1 00:57:37 27° WSW 01:00:38 49° NW 01:06:50 10° NNE
Cosmos 1777 Rocket 3.9 00:55:28 10° NNW 01:00:41 72° WSW 01:01:54 51° S
Timation 2 Rocket 3.9 00:54:37 10° NNW 01:01:01 87° ENE 01:04:30 28° SSE
FALCON 9 DEB 4.3 01:02:08 35° E 01:02:08 35° E 01:04:29 10° ENE
BREEZE-M R/B 3.1 01:01:07 60° SSE 01:01:14 60° SSE 01:04:29 10° ENE
Spot 1 4.2 01:00:54 59° SW 01:01:26 64° WSW 01:06:14 10° NNW
Cosmos 1602 Rocket 4.2 01:01:58 40° SE 01:02:55 48° E 01:07:06 10° NNE
STARLINK-29 3.8 01:04:34 46° ENE 01:04:34 46° ENE 01:06:56 10° ENE
Cosmos 1455 4.3 01:04:11 10° NNE 01:07:14 23° ENE 01:09:23 14° ESE
ATLAS 3B R/B 2.6 01:01:22 10° NW 01:08:10 72° WSW 01:12:43 24° SSE
CENTAUR R/B 3.7 01:04:26 10° NW 01:11:59 40° WSW 01:14:47 32° SSW
BREEZE-M DEB (TANK) 2.4 01:12:38 40° N 01:12:38 40° N 01:14:41 10° NE
Meteor 2-1 Rocket 4.5 01:09:16 10° N 01:14:44 63° ENE 01:18:03 24° SSE
Cosmos 1745 Rocket 3.9 01:12:45 39° S 01:15:16 88° W 01:21:26 10° N
Cosmos 1867 4.0 01:11:23 10° NW 01:16:27 40° WSW 01:16:44 39° WSW
RESURS DK-1 2.5 01:19:17 53° WSW 01:19:56 62° WNW 01:24:04 10° NNE
Meteor 1-24 Rocket 4.2 01:22:03 34° WSW 01:23:37 43° WNW 01:28:45 10° N
Cosmos 2227 Rocket 3.1 01:19:11 10° NNW 01:24:40 47° ENE 01:30:07 10° SE
Cosmos 1356 Rocket 3.3 01:20:51 10° NNW 01:25:00 76° W 01:25:49 55° SSW
Cosmos 1697 Rocket 4.2 01:23:11 16° SSE 01:26:26 27° ESE 01:31:05 10° NE
CZ-2D R/B 2.0 01:22:51 10° NNE 01:28:09 87° ESE 01:30:15 38° SSW
ATLAS 2AS CENTAUR R/B 4.0 01:23:17 15° WSW 01:29:36 41° NW 01:37:00 10° NNE
ADEOS II 3.2 01:25:56 10° NNE 01:30:46 36° E 01:34:07 18° SSE
IKONOS-2 4.4 01:29:56 46° S 01:31:09 78° WSW 01:35:28 10° NNW
CZ-4C R/B 3.5 01:30:46 51° SW 01:31:27 58° W 01:35:43 10° NNW
STARLINK-1228 2.9 01:32:23 10° NW 01:35:44 90° NNE 01:39:04 10° SE
STARLINK-1234 2.8 01:33:48 10° NW 01:36:56 86° NNE 01:37:03 82° E
Resurs 1-4 Rocket 2.1 01:32:37 10° N 01:37:55 76° WNW 01:40:11 35° SSW
STARLINK-1212 3.2 01:35:11 10° NW 01:38:17 65° NNE 01:41:22 10° ESE
STARLINK-1105 3.2 01:35:40 10° NW 01:38:45 66° NNE 01:41:49 10° ESE
USA 81 4.0 01:36:19 33° S 01:38:47 88° E 01:44:06 10° N
STARLINK-1209 3.1 01:36:04 10° WNW 01:38:42 59° WNW 01:38:42 59° WNW
STARLINK-1247 3.1 01:36:34 10° NW 01:39:41 67° NNE 01:42:47 10° ESE
STARLINK-1227 3.1 01:37:02 10° NW 01:40:08 68° NNE 01:43:12 10° ESE
STARLINK-52 3.4 01:39:41 47° WNW 01:40:12 53° NNW 01:43:22 10° NE
STARLINK-1226 3.1 01:37:53 10° NW 01:41:00 69° NNE 01:44:05 10° ESE
Cosmos 1758 Rocket 3.9 01:39:22 30° SSE 01:41:16 58° E 01:45:34 10° NNE
STARLINK-1215 3.1 01:38:49 10° NW 01:41:57 70° NNE 01:45:03 10° ESE
ARIANE 5 R/B 4.1 01:38:29 10° NE 01:42:50 28° E 01:46:55 11° SSE
STARLINK-1217 3.0 01:40:35 10° NW 01:43:42 73° NNE 01:46:49 10° ESE
STARLINK-1229 3.0 01:41:30 10° NW 01:44:38 75° NNE 01:47:45 10° ESE
NPP 3.6 01:39:57 10° N 01:45:21 77° WNW 01:47:57 32° SSW
STARLINK-1270 2.9 01:42:22 10° NW 01:45:30 76° NNE 01:48:37 10° ESE
STARLINK-1189 2.9 01:44:12 10° NW 01:47:19 79° NNE 01:50:27 10° ESE
STARLINK-1188 2.9 01:45:05 10° NW 01:48:13 80° NE 01:51:20 10° ESE
STARLINK-1235 2.6 01:45:46 10° WNW 01:48:52 78° SW 01:51:58 10° SE
STARLINK-1187 2.7 01:46:12 10° NW 01:49:18 88° SW 01:52:24 10° SE
Meteor 1-21 Rocket 4.2 01:46:49 30° SSW 01:49:44 87° W 01:55:26 10° N
Cosmos 1898 Rocket 4.0 01:44:41 10° NNW 01:50:00 63° ENE 01:55:15 10° SSE
STARLINK-1191 2.8 01:47:34 10° NW 01:50:40 84° NE 01:53:46 10° ESE
Cosmos 1656 3.7 01:48:20 29° SSW 01:51:18 77° ESE 01:56:57 10° NNE
Lacrosse 4 Rocket 4.1 01:47:52 10° N 01:51:21 23° NE 01:54:45 10° E
STARLINK-1221 2.8 01:48:25 10° NW 01:51:32 86° NE 01:54:39 10° SE
STARLINK-1222 2.7 01:49:20 10° NW 01:52:26 87° NE 01:55:32 10° SE
CZ-4C R/B 2.9 01:50:43 23° S 01:53:17 39° ESE 01:58:31 10° NE
STARLINK-1214 2.7 01:50:14 10° NW 01:53:21 89° ENE 01:56:26 10° SE
Cosmos 2084 3.8 01:52:18 32° WSW 01:54:10 58° NW 01:58:35 10° NNE
Cosmos 468 Rocket 4.0 01:52:22 29° S 01:55:01 75° ESE 02:00:09 10° NNE
SJ 16-02 1.4 01:51:05 10° NNW 01:55:32 81° ENE 01:59:17 14° SSE
Cosmos 1953 Rocket 4.3 01:54:38 19° SSE 01:57:37 49° E 02:01:55 10° NNE
STARLINK-1197 4.4 01:54:47 10° NW 01:58:51 52° NNE 02:02:55 10° ESE
COSMOS 2455 4.4 01:54:47 12° W 01:59:09 26° NW 02:04:11 10° NNE
Cosmos 2369 4.4 01:55:55 19° S 01:59:39 47° ESE 02:05:02 10° NE
Cosmos 1937 Rocket 4.2 01:55:05 10° NNW 02:00:15 56° ENE 02:05:25 10° SE
Cosmos 921 Rocket 4.5 02:00:21 20° W 02:01:52 24° WNW 02:05:25 10° N
Meteor 2-10 Rocket 3.5 01:57:14 10° NNW 02:02:33 72° W 02:06:01 21° S
STARLINK-1198 4.3 01:59:44 10° NW 02:03:49 56° NNE 02:07:54 10° ESE
Cosmos 1709 Rocket 4.0 02:01:48 25° SSW 02:05:25 66° W 02:11:32 10° N
STARLINK-1199 4.2 02:04:44 10° NW 02:08:51 60° NNE 02:12:57 10° ESE
STARLINK-1210 4.0 02:09:41 10° NW 02:13:49 65° NNE 02:17:56 10° ESE
STARLINK-1320 2.9 02:14:52 36° WSW 02:15:58 75° NNW 02:19:05 10° NE
STARLINK-1322 2.9 02:15:11 36° WSW 02:16:18 74° NW 02:19:25 10° NE
STARLINK-1324 2.9 02:15:32 35° WSW 02:16:39 74° NNW 02:19:47 10° NE
STARLINK-1294 2.9 02:15:47 35° WSW 02:16:56 74° NNW 02:20:05 10° NE
STARLINK-1261 2.9 02:16:09 35° WSW 02:17:18 73° NW 02:20:26 10° NE
Cosmos 2219 3.4 02:12:06 10° NW 02:17:33 48° WSW 02:22:15 13° S
STARLINK-1325 2.9 02:16:30 34° WSW 02:17:40 72° NNW 02:20:48 10° NE
STARLINK-1333 2.9 02:16:48 34° WSW 02:17:59 72° NNW 02:21:06 10° NE
STARLINK-1334 2.9 02:17:07 34° WSW 02:18:19 71° NW 02:21:26 10° NE
Cosmos 1980 Rocket 3.3 02:13:41 11° S 02:18:35 38° ESE 02:23:44 10° NE
STARLINK-1326 2.9 02:17:28 33° WSW 02:18:40 71° NW 02:21:47 10° NE
STARLINK-1219 3.9 02:14:39 10° NW 02:18:49 70° NNE 02:22:56 10° ESE
STARLINK-1323 2.9 02:17:47 33° WSW 02:19:00 70° NNW 02:22:07 10° NE
STARLINK-1338 3.1 02:17:39 31° WSW 02:19:13 81° NNW 02:22:42 10° NE
STARLINK-1349 3.0 02:18:06 33° WSW 02:19:21 70° NNW 02:22:27 10° NE
STARLINK-1336 3.0 02:18:28 32° WSW 02:19:42 69° NNW 02:22:49 10° NE
STARLINK-1331 3.0 02:18:45 32° WSW 02:20:01 69° NNW 02:23:08 10° NE
STARLINK-1344 3.0 02:19:05 32° WSW 02:20:21 68° NNW 02:23:29 10° NE
STARLINK-1343 3.0 02:19:25 31° WSW 02:20:42 68° NNW 02:23:49 10° NE
STARLINK-1346 3.0 02:19:43 31° WSW 02:21:03 68° NNW 02:24:12 10° NE
STARLINK-1328 3.0 02:20:05 31° WSW 02:21:23 67° NNW 02:24:30 10° NE
Cosmos 1328 3.8 02:19:18 26° SSW 02:21:28 69° W 02:25:27 10° N
STARLINK-1354 3.0 02:20:22 30° WSW 02:21:42 67° NNW 02:24:48 10° NE
STARLINK-1347 3.0 02:20:44 30° WSW 02:22:04 66° NNW 02:25:10 10° NE
STARLINK-1357 3.0 02:21:01 30° WSW 02:22:22 66° NNW 02:25:29 10° NE
STARLINK-1335 3.0 02:21:22 29° WSW 02:22:43 65° NNW 02:25:50 10° NE
STARLINK-1327 3.1 02:21:41 29° WSW 02:23:03 65° NNW 02:26:09 10° NE
STARLINK-1371 3.2 02:21:31 27° WSW 02:23:14 75° NNW 02:26:45 10° NE
STARLINK-1340 3.1 02:22:01 29° WSW 02:23:25 64° NNW 02:26:31 10° NE
CRYOSAT 2 4.3 02:18:29 10° N 02:23:25 82° W 02:27:17 17° S
STARLINK-1356 3.1 02:22:21 28° WSW 02:23:45 64° NNW 02:26:51 10° NE
STARLINK-1211 3.8 02:19:37 10° NW 02:23:47 75° NNE 02:27:55 10° ESE
ERS-2 2.7 02:20:14 10° SSE 02:23:49 57° ENE 02:27:26 10° N
STARLINK-1345 3.1 02:22:41 28° WSW 02:24:05 63° NNW 02:27:12 10° NE
STARLINK-1355 3.1 02:22:59 28° WSW 02:24:25 63° NNW 02:27:31 10° NE
STARLINK-1321 3.1 02:23:18 28° WSW 02:24:45 62° NNW 02:27:51 10° NE
STARLINK-1358 3.1 02:23:39 27° WSW 02:25:07 62° NNW 02:28:13 10° NE
STARLINK-1341 3.2 02:23:29 26° WSW 02:25:17 73° NNW 02:28:47 10° NE
STARLINK-1332 3.1 02:23:57 27° WSW 02:25:25 62° NNW 02:28:32 10° NE
STARLINK-1348 3.1 02:24:18 27° WSW 02:25:47 61° NNW 02:28:53 10° NE
STARLINK-1330 3.2 02:24:36 27° WSW 02:26:06 61° NNW 02:29:12 10° NE
STARLINK-1363 3.2 02:24:56 26° WSW 02:26:26 60° NNW 02:29:32 10° NE
STARLINK-1337 3.2 02:25:15 26° WSW 02:26:47 60° NNW 02:29:53 10° NE
STARLINK-1342 3.2 02:25:35 26° WSW 02:27:07 60° NNW 02:30:13 10° NE
STARLINK-1374 3.3 02:25:26 25° WSW 02:27:20 70° NNW 02:30:51 10° NE
STARLINK-1364 3.2 02:25:55 26° WSW 02:27:28 59° NNW 02:30:34 10° NE
STARLINK-1376 3.2 02:26:15 25° WSW 02:27:49 59° NNW 02:30:54 10° NE
STARLINK-1360 3.2 02:26:30 25° WSW 02:28:05 58° NNW 02:31:10 10° NE
STARLINK-1361 3.2 02:26:56 25° WSW 02:28:31 58° NNW 02:31:37 10° NE
STARLINK-1245 3.7 02:24:37 10° NW 02:28:47 81° NNE 02:32:55 10° ESE
STARLINK-1367 3.2 02:27:10 24° WSW 02:28:47 58° NNW 02:31:55 10° NE
IRS-1C 4.1 02:23:44 10° NNE 02:29:06 83° WNW 02:33:25 16° SSW
STARLINK-1366 3.2 02:27:33 24° WSW 02:29:10 57° NNW 02:32:15 10° NE
STARLINK-1339 3.3 02:27:27 24° WSW 02:29:26 68° NNW 02:32:55 10° NE
SL-4 R/B 3.7 02:25:50 10° W 02:30:17 36° NNW 02:34:34 10° NE
STARLINK-1377 3.4 02:29:28 22° WSW 02:31:32 65° NNW 02:35:01 10° NE
CZ-4B R/B 4.5 02:27:17 10° N 02:31:54 34° WNW 02:35:13 17° WSW
Cosmos 2297 Rocket 2.5 02:27:42 10° NW 02:33:04 45° WSW 02:38:24 10° S
STARLINK-1353 3.4 02:31:17 21° WSW 02:33:23 63° NNW 02:36:51 10° NE
STARLINK-1233 3.6 02:29:35 10° NW 02:33:44 87° NNE 02:37:53 10° SE
STARLINK-1375 3.5 02:33:04 20° WSW 02:35:15 61° NNW 02:38:43 10° NE
Cosmos 540 Rocket 3.6 02:32:22 14° S 02:36:43 73° ESE 02:41:51 10° NNE
Cosmos 2082 3.6 02:31:12 10° NNW 02:36:53 83° WSW 02:42:30 10° SSE
ATLAS CENTAUR R/B 4.0 02:35:50 10° NW 02:37:12 11° NW 02:38:33 10° NNW
STARLINK-1350 3.5 02:35:22 19° WSW 02:37:39 58° NNW 02:41:06 10° NE
STARLINK-1204 3.5 02:34:34 10° NW 02:38:44 87° SW 02:42:53 10° SE
Cosmos 990 Rocket 4.3 02:33:50 10° NNW 02:38:53 47° WSW 02:43:52 10° S
STARLINK-1352 3.6 02:37:39 18° WSW 02:40:05 56° NNW 02:43:34 10° NE
Cosmos 1825 Rocket 4.2 02:38:21 19° SW 02:40:56 37° WNW 02:44:58 10° N
Cosmos 2278 3.9 02:36:08 13° SSW 02:41:08 70° ESE 02:46:46 10° NNE
STARLINK-1368 3.7 02:39:45 17° WSW 02:42:15 54° NNW 02:45:44 10° NE
Cosmos 1455 3.5 02:39:45 10° NW 02:42:46 23° W 02:44:15 18° WSW
Meteor 1-11 4.2 02:38:11 13° SSW 02:43:20 80° W 02:48:58 10° N
CZ-2D R/B 3.7 02:39:19 10° NNE 02:43:26 71° ESE 02:47:37 10° S
Meteor 1-28 Rocket 3.1 02:39:51 10° SSE 02:43:38 85° WSW 02:47:25 10° NNW
STARLINK-1238 3.5 02:39:32 10° WNW 02:43:41 81° SW 02:47:49 10° SE
SL-16 R/B 3.8 02:41:06 16° SW 02:43:59 21° W 02:48:33 10° NW
STARLINK-1369 3.7 02:41:37 16° WSW 02:44:11 52° NNW 02:47:36 10° NE
USA 234 4.0 02:38:49 10° ENE 02:45:01 44° SE 02:51:06 10° SSW
STARLINK-1372 3.8 02:43:57 15° WSW 02:46:40 50° NNW 02:50:07 10° NE
Cosmos 2074 Rocket 4.0 02:40:25 10° S 02:46:43 80° W 02:53:03 10° N
ATLAS CENTAUR R/B 2.8 02:43:41 10° WNW 02:47:08 45° SW 02:55:10 10° SSE
STARLINK-1201 3.5 02:44:33 10° WNW 02:48:41 74° SW 02:52:48 10° SE
Cosmos 2263 Rocket 4.2 02:43:39 10° N 02:48:41 32° NE 02:53:40 10° ESE
STARLINK-1378 3.9 02:46:05 14° WSW 02:48:53 49° NNW 02:52:20 10° NE
Cosmos 841 Rocket 3.5 02:44:27 14° SSW 02:49:01 82° WNW 02:54:17 10° NNE
STARLINK-1329 3.9 02:46:35 14° WSW 02:49:25 48° NNW 02:52:52 10° NE
STARLINK-1365 4.0 02:47:17 14° W 02:50:09 46° NNW 02:53:35 10° NE
Cosmos 372 Rocket 4.3 02:45:29 10° NNW 02:50:37 69° ENE 02:55:43 10° SSE
GP-B 4.4 02:47:15 10° NNW 02:50:53 25° WNW 02:53:36 14° SW
STARLINK-1379 3.9 02:48:13 13° W 02:51:07 47° NNW 02:54:33 10° NE
IRS-1D 4.5 02:46:52 10° N 02:51:40 35° WNW 02:55:45 13° SW
STARLINK-1362 3.9 02:48:47 13° W 02:51:43 47° NNW 02:55:09 10° NE
COBE Rocket 3.9 02:48:46 10° S 02:53:38 68° W 02:58:41 10° NNW
STARLINK-1206 3.5 02:49:32 10° WNW 02:53:39 68° SW 02:57:46 10° SE
STARLINK-1373 4.0 02:50:59 12° W 02:54:01 45° NNW 02:57:28 10° NE
Cosmos-2242 4.0 02:50:43 10° NNW 02:54:23 28° W 02:57:21 14° SW
Cosmos 1869 4.3 02:51:17 10° N 02:55:06 48° ENE 02:58:50 10° SSE
Cosmos 1400 Rocket 2.9 02:51:37 10° NNW 02:55:42 63° W 02:59:45 10° S
STARLINK-1390 4.1 02:52:59 12° W 02:56:05 44° NNW 02:59:30 10° NE
Cosmos 2221 3.1 02:52:13 10° N 02:56:30 61° E 03:00:48 10° SSE
ATLAS 3B R/B 4.3 02:54:48 10° WNW 02:57:46 13° WSW 02:59:50 12° WSW
Cosmos 2184 Rocket 4.0 02:52:07 10° SSW 02:58:16 68° W 03:04:26 10° N
STARLINK-1205 3.6 02:54:31 10° WNW 02:58:36 62° SW 03:02:41 10° SE
SL-08 R/B 3.8 02:54:45 10° S 02:59:12 41° W 03:03:36 10° NNW
CZ-4C R/B 3.0 02:56:01 10° SSE 02:59:35 88° WSW 03:03:14 10° NNW
STARLINK-1218 3.6 02:59:30 10° WNW 03:03:34 57° SW 03:07:37 10° SE
CZ-2D R/B 4.1 03:04:45 10° NNW 03:07:27 14° WNW 03:10:09 10° W
Cosmos 2227 Rocket 3.1 03:03:44 10° NW 03:08:26 27° WSW 03:13:06 10° SSW
STARLINK-1254 3.7 03:04:30 10° WNW 03:08:32 52° SW 03:12:33 10° SE
Cosmos 1697 Rocket 3.2 03:04:56 11° SW 03:10:06 48° WNW 03:15:36 10° NNE
ADEOS II 3.1 03:05:47 10° N 03:10:22 31° WNW 03:14:56 10° SW
Cosmos 2150 Rocket 4.1 03:07:26 10° NNW 03:12:39 81° ENE 03:17:47 10° SSE
STARLINK-1231 3.8 03:09:31 10° WNW 03:13:31 47° SW 03:17:29 10° SSE
Cosmos 1315 Rocket 2.9 03:11:50 10° N 03:15:45 77° E 03:19:39 10° SSE
SL-16 R/B 3.8 03:11:02 10° SSE 03:16:01 33° ESE 03:21:02 10° NE
Resurs 1-4 Rocket 4.2 03:15:01 10° NW 03:16:50 12° NW 03:18:39 10° WNW
Cosmos 1610 Rocket 4.5 03:10:50 10° SSW 03:16:57 73° W 03:23:07 10° N
CZ-2C R/B 2.7 03:13:39 10° N 03:17:21 73° WNW 03:21:03 10° SSW
MSX 4.1 03:12:36 10° NNE 03:18:23 74° ESE 03:24:07 10° S
STARLINK-1232 3.9 03:14:32 10° WNW 03:18:29 43° SW 03:22:24 10° SSE
SAR-Lupe-4 3.9 03:16:11 10° SSE 03:19:44 71° ENE 03:23:20 10° N
H-2A R/B 2.4 03:15:57 10° S 03:20:02 44° W 03:24:16 10° NNW
STARLINK-1224 4.5 03:16:43 10° NW 03:20:48 55° NNE 03:24:52 10° ESE
ARIANE 5 R/B 3.3 03:17:21 10° N 03:21:59 37° WNW 03:26:33 10° SW
deb Chang Zheng 4 4.1 03:19:06 10° NNE 03:23:24 62° ESE 03:27:38 10° S
STARLINK-1208 4.1 03:19:31 10° WNW 03:23:25 39° SW 03:27:16 10° SSE
BREEZE-M R/B 3.8 03:20:57 10° WNW 03:23:50 27° NNW 03:26:02 10° NE
STARLINK-1225 4.3 03:21:42 10° NW 03:25:49 59° NNE 03:29:54 10° ESE
STARLINK-1271 4.2 03:24:34 10° WNW 03:28:23 36° SW 03:32:11 10° SSE
SL-24 DEB 4.3 03:23:59 10° N 03:28:35 67° W 03:33:09 10° SSW
BREEZE-M DEB (TANK) 2.1 03:26:54 10° W 03:28:47 28° SSW 03:31:14 10° SSE
Lacrosse 4 Rocket 1.8 03:26:09 10° NW 03:30:14 43° WSW 03:34:13 10° S
Cosmos 2154 Rocket 4.2 03:24:04 10° SSW 03:30:16 61° WNW 03:36:29 10° N
STARLINK-1230 4.2 03:26:40 10° NW 03:30:48 63° NNE 03:34:54 10° ESE
